| time (UTC) | temp C | wind direction | speed KPH | gust KPH | rain 1hr cm | rain 24hr cm | rain mn cm | humidity % | barometer mb |
| 20260504195003 | 30 | 169 | 3.2 | 12.9 | 0.00 | 0.00 | 0.00 | 44 | 1014.0 |
| 20260504192001 | 28 | 57 | 8.0 | 17.7 | 0.00 | 0.00 | 0.00 | 48 | 1014.4 |
| 20260504185002 | 29 | 95 | 4.8 | 17.7 | 0.00 | 0.00 | 0.00 | 47 | 1014.7 |
| 20260504182000 | 28 | 63 | 6.4 | 19.3 | 0.00 | 0.00 | 0.00 | 46 | 1015.6 |
| 20260504175000 | 28 | 92 | 6.4 | 16.1 | 0.00 | 0.00 | 0.00 | 47 | 1015.8 |
| 20260504172000 | 27 | 144 | 8.0 | 20.9 | 0.00 | 0.00 | 0.00 | 47 | 1016.1 |
| 20260504081952 | 19 | 46 | 3.2 | 9.7 | 0.00 | 0.00 | 0.00 | 83 | 1015.3 |
| 20260504044950 | 20 | 51 | 3.2 | 9.7 | 0.00 | 0.00 | 0.00 | 82 | 1016.6 |
| 20260504041950 | 20 | 58 | 0.0 | 3.2 | 0.00 | 0.00 | 0.00 | 82 | 1017.0 |
| 20260504034951 | 21 | 62 | 1.6 | 8.0 | 0.00 | 0.00 | 0.00 | 80 | 1017.3 |
| 20260504031954 | 22 | 82 | 3.2 | 12.9 | 0.00 | 0.00 | 0.00 | 76 | 1016.7 |
| 20260504031949 | 21 | 101 | 0.0 | 9.7 | 0.00 | 0.00 | 0.00 | 79 | 1017.0 |
| 20260504024948 | 21 | 70 | 1.6 | 9.7 | 0.00 | 0.00 | 0.00 | 78 | 1017.0 |
| 20260504014945 | 22 | 132 | 3.2 | 9.7 | 0.00 | 0.00 | 0.00 | 76 | 1016.4 |
| 20260504011944 | 22 | 121 | 3.2 | 8.0 | 0.00 | 0.00 | 0.00 | 76 | 1016.1 |
| 20260504004945 | 23 | 92 | 0.0 | 6.4 | 0.00 | 0.00 | 0.00 | 74 | 1015.7 |
| 20260504001943 | 23 | 126 | 1.6 | 9.7 | 0.00 | 0.00 | 0.00 | 71 | 1015.4 |
| 20260503234943 | 24 | 114 | 3.2 | 11.3 | 0.00 | 0.00 | 0.00 | 67 | 1015.2 |
| 20260503231949 | 25 | 96 | 3.2 | 12.9 | 0.00 | 0.00 | 0.00 | 64 | 1015.0 |
| 20260503231944 | 25 | 116 | 3.2 | 14.5 | 0.00 | 0.00 | 0.00 | 65 | 1015.0 |
| 20260503221941 | 26 | 126 | 3.2 | 11.3 | 0.00 | 0.00 | 0.00 | 62 | 1014.9 |
| 20260503214941 | 26 | 92 | 3.2 | 12.9 | 0.00 | 0.00 | 0.00 | 62 | 1014.9 |
| 20260503211942 | 26 | 99 | 4.8 | 14.5 | 0.00 | 0.00 | 0.00 | 58 | 1014.9 |